Location: Eaton Estates
(41.3089°N, 82.0057°W)
Time: 14:59:56
(UTC+00:00)

USA 308 - Pass Details

Date: 26 October 2021
Orbit: 565 x 570 km, 54.0° (Epoch: 04 December)

Event Time Altitude Azimuth Distance (km) Brightness Sun altitude
Exits shadow 09:41:43 59° 36° (NE) 662 3.3 -25.2°
Drops below altitude 10° 09:45:13 10° 49° (NE) 1,863 6.2 -24.5°
Sets 09:47:31 0° 50° (NE) 2,780 7.2 -24.1°
